Weather History for Cheyenne, WY

Change the Weather History Date:

Friday, July 5, 2013

  Actual Average Record
Temperature  
Mean Temperature 72 °F 68 °F  
Max Temperature 85 °F 82 °F 96 °F (1989)
Min Temperature 59 °F 54 °F 40 °F (1897)
Degree Days  
Heating Degree Days 0 1  
Month to date heating degree days 0 5  
Since 1 June heating degree days 62 139  
Since 1 July heating degree days 0 5  
Cooling Degree Days 7 4  
Month to date cooling degree days 21 20  
Year to date cooling degree days 144 70  
Since 1 June cooling degree days 138 67  
Growing Degree Days 22 (Base 50)    
Moisture  
Dew Point 52 °F    
Average Humidity 57    
Maximum Humidity 84    
Minimum Humidity 30    
Precipitation  
Precipitation 0.11 in 0.05 in 0.68 in (1908)
Month to date precipitation 0.13 0.29  
Year to date precipitation 5.77 8.60  
Snow  
Snow 0.00 in 0.00 in - ()
Month to date snowfall 0.0 0.0  
Since 1 July snowfall 0.0 0.0  
Snow Depth 0.00 in    
Sea Level Pressure  
Sea Level Pressure 29.79 in    
Wind  
Wind Speed 7 mph (West)    
Max Wind Speed 23 mph    
Max Gust Speed 37 mph    
Visibility 10 miles    
Events Rain , Thunderstorm    
T = Trace of Precipitation, MM = Missing Value Source: NWS Daily Summary

Daily Weather History Graph

Daily Weather History Graph

Search for Another Location

Airport:

Trip Planner

Search our weather history database for the weather conditions in past years. The results will help you decide how hot, cold, wet, or windy it might be!

Date:

Astronomy

Jul. 05, 2013 Rise Set
Actual Time 5:32 AM MDT 8:34 PM MDT
Civil Twilight 4:59 AM MDT 9:08 PM MDT
Nautical Twilight 4:16 AM MDT 9:50 PM MDT
Astronomical Twilight 3:26 AM MDT 10:40 PM MDT
Moon 3:34 AM MDT (7/5) 6:31 PM MDT (7/5)
Length of Visible Light 16h 08m
Length of Day
15h 02m
Waning Crescent, 6% of the Moon is Illuminated
Jul 5
Waning Crescent
Jul 8
New
Jul 15
First Quarter
Jul 22
Full
Jul 29
Last Quarter

Hourly Weather History & Observations

Time (MDT) Temp. Dew Point Humidity Pressure Visibility Wind Dir Wind Speed Gust Speed Precip Events Conditions
12:53 AM 66.9 °F 46.9 °F 49% 29.75 in 10.0 mi Variable 4.6 mph - N/A   Clear
1:53 AM 64.0 °F 46.9 °F 54% 29.75 in 10.0 mi NW 3.5 mph - N/A   Clear
2:53 AM 64.9 °F 46.0 °F 50% 29.72 in 10.0 mi NW 3.5 mph - N/A   Clear
3:53 AM 66.0 °F 46.0 °F 48% 29.71 in 10.0 mi NW 5.8 mph - N/A   Mostly Cloudy
4:53 AM 66.0 °F 48.0 °F 52% 29.72 in 10.0 mi North 9.2 mph - N/A   Mostly Cloudy
5:53 AM 63.0 °F 46.9 °F 56% 29.73 in 10.0 mi NNW 9.2 mph - N/A   Clear
6:53 AM 63.0 °F 48.9 °F 60% 29.75 in 10.0 mi North 4.6 mph - 0.00 in Rain Light Rain
7:53 AM 63.0 °F 50.0 °F 63% 29.74 in 10.0 mi WNW 4.6 mph - 0.00 in   Clear
8:53 AM 66.9 °F 50.0 °F 54% 29.73 in 10.0 mi NNW 3.5 mph - N/A   Clear
9:53 AM 75.0 °F 48.9 °F 40% 29.71 in 10.0 mi East 4.6 mph - N/A   Clear
10:53 AM 80.1 °F 48.0 °F 32% 29.69 in 10.0 mi Variable 5.8 mph - N/A   Partly Cloudy
11:53 AM 80.1 °F 48.0 °F 32% 29.69 in 10.0 mi North 11.5 mph - N/A   Overcast
12:53 PM 81.0 °F 46.0 °F 29% 29.68 in 10.0 mi NW 3.5 mph - N/A   Overcast
1:04 PM 82.4 °F 44.6 °F 26% 29.97 in 10.0 mi Variable 5.8 mph - N/A Thunderstorm Overcast
1:22 PM 69.8 °F 51.8 °F 53% 30.00 in 1.8 mi NNW 12.7 mph 36.8 mph 0.00 in Rain , Thunderstorm Heavy Thunderstorms and Rain
1:31 PM 66.2 °F 57.2 °F 73% 29.97 in 3.0 mi East 15.0 mph - 0.10 in Rain , Thunderstorm Light Thunderstorms and Rain
1:37 PM 69.8 °F 53.6 °F 56% 29.97 in 10.0 mi SE 6.9 mph - 0.10 in Rain , Thunderstorm Light Rain
1:53 PM 71.1 °F 57.9 °F 63% 29.72 in 10.0 mi South 5.8 mph - 0.10 in Thunderstorm Mostly Cloudy
2:10 PM 73.4 °F 57.2 °F 57% 29.97 in 10.0 mi SSE 6.9 mph - N/A   Mostly Cloudy
2:53 PM 70.0 °F 55.9 °F 61% 29.72 in 10.0 mi South 8.1 mph - 0.01 in Rain Light Rain
3:11 PM 71.6 °F 57.2 °F 60% 29.98 in 10.0 mi South 6.9 mph 16.1 mph 0.00 in Thunderstorm Thunderstorm
3:35 PM 71.6 °F 57.2 °F 60% 29.97 in 10.0 mi SSW 15.0 mph 20.7 mph 0.00 in   Mostly Cloudy
3:43 PM 69.8 °F 55.4 °F 60% 29.99 in 10.0 mi WSW 17.3 mph - 0.00 in Thunderstorm Mostly Cloudy
3:53 PM 70.0 °F 55.9 °F 61% 29.73 in 9.0 mi SSW 18.4 mph - 0.00 in Rain Light Rain
4:16 PM 69.8 °F 55.4 °F 60% 29.99 in 10.0 mi SSW 5.8 mph - 0.00 in Thunderstorm Mostly Cloudy
4:31 PM 68.0 °F 55.4 °F 64% 30.02 in 10.0 mi WSW 12.7 mph 20.7 mph 0.00 in Rain Light Rain
4:53 PM 66.0 °F 55.0 °F 68% 29.77 in 10.0 mi WSW 15.0 mph 28.8 mph 0.00 in   Mostly Cloudy
5:53 PM 66.0 °F 54.0 °F 65% 29.74 in 10.0 mi WSW 11.5 mph - 0.00 in Rain Light Rain
6:53 PM 71.1 °F 53.1 °F 53% 29.73 in 10.0 mi NNW 6.9 mph - 0.00 in   Clear
7:53 PM 70.0 °F 54.0 °F 57% 29.73 in 10.0 mi Calm Calm - N/A   Clear
8:53 PM 66.0 °F 57.0 °F 73% 29.74 in 10.0 mi West 5.8 mph - N/A   Clear
9:53 PM 63.0 °F 55.9 °F 78% 29.74 in 10.0 mi West 9.2 mph - N/A   Clear
10:53 PM 61.0 °F 55.0 °F 81% 29.72 in 10.0 mi West 6.9 mph - N/A   Clear
11:53 PM 60.1 °F 54.0 °F 80% 29.71 in 10.0 mi NW 5.8 mph - N/A   Clear